Location: Newark
(44.2003°N, 3.2583°E)
Time: 16:03:05
(UTC+00:00)

Courier 1B - Visible Passes

Search period start: 14 October 2019 00:00
Search period end: 24 October 2019 00:00
Orbit: 962 x 1209 km, 28.3° (Epoch: 14 October)

Date Brightness Start Highest point End Pass type
(mag) Time Alt. Az. Time Alt. Az. Time Alt. Az.
14 Oct 9.6 19:31:25 10° SSW 19:34:12 15° S 19:34:12 15° S visible
15 Oct 9.6 18:38:40 10° S 18:42:07 13° SSE 18:43:53 12° SE visible
15 Oct 9.9 20:29:42 10° SW 20:30:47 13° SSW 20:30:47 13° SSW visible
16 Oct 9.8 17:46:49 10° SSE 17:48:32 11° SSE 17:50:14 10° SE visible
16 Oct 9.4 19:36:13 10° SSW 19:40:26 20° S 19:40:26 20° S visible
17 Oct 9.4 18:42:55 10° SSW 18:47:54 18° SSE 18:50:03 17° SE visible
17 Oct 9.9 20:35:20 10° SW 20:36:56 15° SW 20:36:56 15° SW visible
18 Oct 9.7 17:49:51 10° SSW 17:54:18 16° SSE 17:58:41 10° SE visible
18 Oct 9.3 19:41:38 10° SW 19:46:31 23° S 19:46:31 23° S visible
19 Oct 9.2 18:48:04 10° SW 18:53:46 22° S 18:56:05 19° SSE visible
19 Oct 9.9 20:41:18 10° SW 20:42:58 15° SW 20:42:58 15° SW visible
20 Oct 9.5 17:54:39 10° SSW 18:00:07 21° SSE 18:05:31 10° ESE visible
20 Oct 9.3 19:47:26 10° SW 19:52:31 23° SSW 19:52:31 23° SSW visible
21 Oct 9.2 18:53:40 10° SW 18:59:39 24° S 19:02:03 21° SSE visible
21 Oct 10.0 20:47:38 10° WSW 20:48:57 13° SW 20:48:57 13° SW visible
22 Oct 9.4 18:00:03 10° SW 18:05:58 24° S 18:11:36 11° SE visible
22 Oct 9.4 19:53:33 10° WSW 19:58:29 21° SSW 19:58:29 21° SSW visible
23 Oct 9.3 18:59:38 10° SW 19:05:31 23° S 19:08:02 20° SSE visible
23 Oct 10.2 20:54:35 10° SW 20:54:56 11° SW 20:54:56 11° SW visible
